SRR94 VABB-OMDB

Flight info

Callsign SRR94
Flight time N/A
Altitude 34000
Route OMKIS2B SAKUN V2 SUGID N571 VUSET A454 PASOV B540 MIVEK P574 IMPED
Aircraft B77L/H-SDE1E2E3FGHIJ2J3J4J5M1RWXY/LB1D1

Departure

Time 2026-05-07 03:20
Airport Chhatrapati Shivaji Maharaj International Airport (VABB)

Arrival

Time N/A
Airport Dubai International Airport (OMDB)
Time Latitude Longitude Altitude Speed Heading
2026-05-07 02:50 19.09560 72.86799 36 ft 0 kts 319°
2026-05-07 03:05 19.09545 72.86815 37 ft 4 kts 308°
2026-05-07 03:05 19.09528 72.86838 33 ft 3 kts 309°
2026-05-07 03:06 19.09516 72.86856 35 ft 4 kts 288°
2026-05-07 03:06 19.09514 72.86877 34 ft 4 kts 245°
2026-05-07 03:06 19.09529 72.86899 34 ft 4 kts 227°
2026-05-07 03:06 19.09540 72.86912 35 ft 0 kts 229°
2026-05-07 03:10 19.09538 72.86909 37 ft 3 kts 229°
2026-05-07 03:10 19.09493 72.86855 37 ft 13 kts 229°
2026-05-07 03:11 19.09431 72.86781 37 ft 13 kts 229°
2026-05-07 03:11 19.09370 72.86707 37 ft 13 kts 229°
2026-05-07 03:11 19.09307 72.86634 37 ft 13 kts 227°
2026-05-07 03:11 19.09248 72.86561 36 ft 13 kts 230°
2026-05-07 03:12 19.09194 72.86479 34 ft 14 kts 254°
2026-05-07 03:12 19.09130 72.86402 33 ft 14 kts 218°
2026-05-07 03:12 19.09059 72.86330 36 ft 14 kts 234°
2026-05-07 03:12 19.09035 72.86222 36 ft 16 kts 267°
2026-05-07 03:13 19.09032 72.86092 36 ft 19 kts 269°
2026-05-07 03:13 19.09030 72.86013 36 ft 0 kts 270°
2026-05-07 03:15 19.09030 72.86008 36 ft 3 kts 270°
2026-05-07 03:15 19.09030 72.85925 36 ft 15 kts 268°
2026-05-07 03:15 19.09028 72.85814 36 ft 15 kts 270°
2026-05-07 03:15 19.09029 72.85703 37 ft 15 kts 271°
2026-05-07 03:16 19.09028 72.85592 37 ft 15 kts 269°
2026-05-07 03:16 19.09025 72.85482 37 ft 15 kts 266°
2026-05-07 03:16 19.09022 72.85372 37 ft 15 kts 269°
2026-05-07 03:16 19.09020 72.85261 37 ft 15 kts 269°
2026-05-07 03:17 19.09019 72.85150 37 ft 15 kts 265°
2026-05-07 03:17 19.08997 72.85041 37 ft 15 kts 254°
2026-05-07 03:17 19.08965 72.84935 37 ft 15 kts 257°
2026-05-07 03:17 19.08938 72.84830 37 ft 15 kts 244°
2026-05-07 03:18 19.08871 72.84801 36 ft 5 kts 182°
2026-05-07 03:18 19.08845 72.84822 36 ft 5 kts 106°
2026-05-07 03:18 19.08845 72.84827 36 ft 0 kts 93°
2026-05-07 03:18 19.08845 72.84828 36 ft 2 kts 93°
2026-05-07 03:19 19.08843 72.84950 36 ft 38 kts 91°
2026-05-07 03:19 19.08855 72.85478 36 ft 106 kts 89°
2026-05-07 03:19 19.08866 72.86472 34 ft 161 kts 89°
2026-05-07 03:19 19.08889 72.87809 92 ft 196 kts 88°
2026-05-07 03:20 19.08900 72.89224 680 ft 190 kts 89°
2026-05-07 03:20 19.08916 72.90630 1188 ft 196 kts 88°
2026-05-07 03:20 19.08943 72.92079 1755 ft 199 kts 87°
2026-05-07 03:20 19.08973 72.93618 2035 ft 220 kts 88°
2026-05-07 03:21 19.08670 72.95283 2189 ft 247 kts 119°
2026-05-07 03:21 19.07382 72.96561 2514 ft 266 kts 157°
2026-05-07 03:21 19.05554 72.96794 3048 ft 276 kts 193°
2026-05-07 03:21 19.03810 72.95949 3683 ft 276 kts 211°
2026-05-07 03:22 19.02016 72.95175 4261 ft 282 kts 187°
2026-05-07 03:22 19.00084 72.95428 4957 ft 282 kts 159°
2026-05-07 03:22 18.98273 72.96186 5621 ft 284 kts 160°
2026-05-07 03:22 18.96386 72.96856 6387 ft 285 kts 163°
2026-05-07 03:23 18.94477 72.97422 7179 ft 284 kts 165°
2026-05-07 03:23 18.92579 72.97926 7970 ft 283 kts 166°
2026-05-07 03:23 18.90653 72.98417 8638 ft 287 kts 166°
2026-05-07 03:23 18.88708 72.98905 8974 ft 286 kts 167°
2026-05-07 03:24 18.86733 72.98992 9546 ft 289 kts 193°
2026-05-07 03:24 18.84913 72.98073 10150 ft 296 kts 218°
2026-05-07 03:24 18.83568 72.96345 10394 ft 320 kts 244°
2026-05-07 03:24 18.83061 72.94014 10561 ft 345 kts 271°
2026-05-07 03:25 18.83550 72.91464 10715 ft 363 kts 284°
2026-05-07 03:25 18.83978 72.88775 10956 ft 380 kts 270°
2026-05-07 03:25 18.83601 72.85992 11534 ft 386 kts 248°
2026-05-07 03:25 18.82346 72.83492 12279 ft 388 kts 236°
2026-05-07 03:26 18.80908 72.81054 13172 ft 391 kts 238°
2026-05-07 03:26 18.79605 72.78517 14003 ft 395 kts 242°
2026-05-07 03:26 18.78397 72.75889 14731 ft 397 kts 245°
2026-05-07 03:26 18.77603 72.73111 15261 ft 407 kts 264°
2026-05-07 03:27 18.77593 72.70131 15857 ft 409 kts 271°
2026-05-07 03:27 18.77628 72.67107 16562 ft 412 kts 270°
2026-05-07 03:27 18.77620 72.64066 17348 ft 414 kts 270°
2026-05-07 03:27 18.77594 72.61043 18037 ft 418 kts 270°
2026-05-07 03:28 18.77561 72.57951 18608 ft 422 kts 270°
2026-05-07 03:28 18.77527 72.54837 19197 ft 425 kts 270°
2026-05-07 03:28 18.77493 72.51704 19794 ft 427 kts 271°
2026-05-07 03:28 18.77460 72.48592 20372 ft 430 kts 271°
2026-05-07 03:29 18.77429 72.45430 20921 ft 430 kts 272°
2026-05-07 03:29 18.77808 72.42299 21236 ft 433 kts 288°
2026-05-07 03:29 18.79048 72.39409 21696 ft 434 kts 304°
2026-05-07 03:29 18.80808 72.36821 22208 ft 433 kts 307°
2026-05-07 03:30 18.82614 72.34256 22722 ft 436 kts 307°
2026-05-07 03:30 18.84415 72.31704 23223 ft 438 kts 307°
2026-05-07 03:30 18.86232 72.29115 23674 ft 440 kts 307°
2026-05-07 03:30 18.88056 72.26498 24067 ft 443 kts 307°
2026-05-07 03:31 18.89884 72.23858 24432 ft 446 kts 307°
2026-05-07 03:31 18.91104 72.22088 24672 ft 448 kts 306°
2026-05-07 03:31 18.92940 72.19418 25031 ft 451 kts 306°
2026-05-07 03:31 18.94786 72.16727 25395 ft 454 kts 306°
2026-05-07 03:32 18.96651 72.14006 25763 ft 457 kts 306°
2026-05-07 03:32 18.98526 72.11270 26119 ft 460 kts 306°
2026-05-07 03:32 19.00387 72.08552 26480 ft 463 kts 306°
2026-05-07 03:32 19.02283 72.05782 26830 ft 465 kts 306°
2026-05-07 03:33 19.04193 72.02990 27180 ft 468 kts 306°
2026-05-07 03:33 19.06090 72.00217 27521 ft 471 kts 306°
2026-05-07 03:33 19.08012 71.97408 27864 ft 473 kts 306°
2026-05-07 03:33 19.09950 71.94572 28183 ft 476 kts 306°
2026-05-07 03:34 19.11900 71.91717 28499 ft 478 kts 306°
2026-05-07 03:34 19.13856 71.88854 28812 ft 481 kts 306°
2026-05-07 03:34 19.15821 71.85975 29114 ft 483 kts 306°
2026-05-07 03:34 19.17771 71.83116 29413 ft 485 kts 306°
2026-05-07 03:35 19.19745 71.80221 29800 ft 485 kts 306°
2026-05-07 03:35 19.21720 71.77324 30233 ft 484 kts 306°
2026-05-07 03:35 19.23692 71.74429 30640 ft 482 kts 305°
2026-05-07 03:35 19.25653 71.71550 31032 ft 481 kts 305°
2026-05-07 03:36 19.27618 71.68664 31411 ft 481 kts 305°
2026-05-07 03:36 19.29551 71.65822 31796 ft 480 kts 305°
2026-05-07 03:36 19.31499 71.62958 32195 ft 480 kts 305°
2026-05-07 03:36 19.33445 71.60094 32593 ft 479 kts 305°
2026-05-07 03:37 19.35392 71.57228 32989 ft 478 kts 304°
2026-05-07 03:37 19.37335 71.54367 33392 ft 477 kts 304°
2026-05-07 03:37 19.39275 71.51509 33775 ft 477 kts 304°
2026-05-07 03:38 19.43159 71.45782 33866 ft 481 kts 304°
2026-05-07 03:38 19.47050 71.40040 33855 ft 476 kts 304°
2026-05-07 03:39 19.50884 71.34377 33864 ft 474 kts 304°
2026-05-07 03:39 19.54725 71.28697 33859 ft 474 kts 304°
2026-05-07 03:40 19.58575 71.22998 33860 ft 474 kts 304°
2026-05-07 03:40 19.61864 71.17022 33858 ft 469 kts 288°
2026-05-07 03:41 19.63838 71.10386 33870 ft 471 kts 287°
2026-05-07 03:41 19.65814 71.03723 33864 ft 474 kts 287°
2026-05-07 03:42 19.67852 70.97087 33861 ft 476 kts 288°
2026-05-07 03:42 19.69935 70.90401 33857 ft 477 kts 288°
2026-05-07 03:43 19.72005 70.83756 33857 ft 477 kts 288°
2026-05-07 03:43 19.74085 70.77054 33854 ft 476 kts 288°
2026-05-07 03:44 19.76155 70.70373 33854 ft 475 kts 288°
2026-05-07 03:44 19.78202 70.63755 33855 ft 474 kts 288°
2026-05-07 03:45 19.80259 70.57097 33859 ft 473 kts 288°
2026-05-07 03:45 19.82298 70.50485 33862 ft 473 kts 288°
2026-05-07 03:46 19.84345 70.43839 33863 ft 472 kts 288°
2026-05-07 03:46 19.85960 70.37088 33854 ft 471 kts 274°
2026-05-07 03:47 19.85510 70.30196 33866 ft 473 kts 257°
2026-05-07 03:47 19.83455 70.23521 33863 ft 475 kts 252°
2026-05-07 03:48 19.81272 70.16927 33869 ft 477 kts 252°
2026-05-07 03:48 19.79106 70.10230 33866 ft 479 kts 252°
2026-05-07 03:49 19.76970 70.03506 33865 ft 480 kts 252°
2026-05-07 03:49 19.74857 69.96832 33865 ft 480 kts 252°
2026-05-07 03:50 19.72718 69.90094 33870 ft 480 kts 252°
2026-05-07 03:50 19.70576 69.83360 33876 ft 480 kts 252°
2026-05-07 03:51 19.68447 69.76679 33872 ft 480 kts 252°
2026-05-07 03:51 19.66313 69.69993 33877 ft 480 kts 252°
2026-05-07 03:52 19.64169 69.63282 33875 ft 480 kts 252°
2026-05-07 03:52 19.62021 69.56569 33879 ft 480 kts 252°
2026-05-07 03:53 19.59883 69.49896 33877 ft 480 kts 252°
2026-05-07 03:53 19.57730 69.43183 33879 ft 480 kts 252°
2026-05-07 03:54 19.56232 69.36358 33879 ft 475 kts 271°
2026-05-07 03:54 19.56554 69.32878 33886 ft 475 kts 282°
2026-05-07 03:54 19.57525 69.29559 33878 ft 475 kts 295°
2026-05-07 03:55 19.60575 69.23336 33884 ft 476 kts 297°
2026-05-07 03:55 19.63660 69.17127 33887 ft 479 kts 297°
2026-05-07 03:56 19.66734 69.10815 33884 ft 481 kts 296°
2026-05-07 03:56 19.69776 69.04484 33880 ft 481 kts 296°
2026-05-07 03:57 19.72791 68.98185 33877 ft 480 kts 296°
2026-05-07 03:57 19.75810 68.91871 33880 ft 478 kts 296°
2026-05-07 03:58 19.78824 68.85565 33875 ft 477 kts 296°
2026-05-07 03:58 19.81804 68.79324 33876 ft 475 kts 296°
2026-05-07 03:59 19.84790 68.73064 33881 ft 474 kts 296°
2026-05-07 03:59 19.87753 68.66847 33884 ft 473 kts 296°
2026-05-07 04:00 19.90731 68.60591 33883 ft 473 kts 296°
2026-05-07 04:00 19.93692 68.54362 33883 ft 473 kts 296°
2026-05-07 04:01 19.96659 68.48114 33880 ft 473 kts 296°
2026-05-07 04:01 19.99617 68.41880 33882 ft 473 kts 296°
2026-05-07 04:02 20.02584 68.35619 33882 ft 473 kts 296°
2026-05-07 04:02 20.05534 68.29386 33881 ft 473 kts 296°
2026-05-07 04:03 20.08497 68.23118 33881 ft 473 kts 296°
2026-05-07 04:03 20.11454 68.16858 33884 ft 473 kts 296°
2026-05-07 04:04 20.14411 68.10589 33882 ft 473 kts 296°
2026-05-07 04:04 20.17349 68.04353 33881 ft 473 kts 296°
2026-05-07 04:05 20.20298 67.98089 33883 ft 473 kts 296°
2026-05-07 04:05 20.23236 67.91840 33888 ft 473 kts 296°
2026-05-07 04:06 20.26188 67.85553 33885 ft 473 kts 296°
2026-05-07 04:06 20.29113 67.79317 33880 ft 473 kts 296°
2026-05-07 04:07 20.32060 67.73028 33881 ft 473 kts 296°
2026-05-07 04:07 20.35000 67.66746 33885 ft 473 kts 296°
2026-05-07 04:08 20.37939 67.60459 33881 ft 473 kts 296°
2026-05-07 04:08 20.40859 67.54205 33883 ft 473 kts 296°
2026-05-07 04:09 20.43793 67.47914 33882 ft 473 kts 296°
2026-05-07 04:09 20.46725 67.41620 33882 ft 474 kts 296°
2026-05-07 04:10 20.49660 67.35313 33881 ft 474 kts 296°
2026-05-07 04:10 20.52574 67.29044 33884 ft 474 kts 296°
2026-05-07 04:11 20.55510 67.22721 33880 ft 474 kts 296°
2026-05-07 04:11 20.58419 67.16446 33884 ft 474 kts 296°
2026-05-07 04:12 20.61346 67.10128 33885 ft 474 kts 296°
2026-05-07 04:12 20.64268 67.03811 33883 ft 474 kts 296°
2026-05-07 04:13 20.67175 66.97522 33883 ft 474 kts 296°
2026-05-07 04:13 20.70103 66.91177 33880 ft 474 kts 296°
2026-05-07 04:14 20.73016 66.84857 33877 ft 475 kts 296°
2026-05-07 04:14 20.75935 66.78519 33879 ft 475 kts 296°
2026-05-07 04:15 20.78837 66.72209 33879 ft 475 kts 296°
2026-05-07 04:15 20.81757 66.65852 33879 ft 475 kts 296°
2026-05-07 04:16 20.84655 66.59536 33884 ft 475 kts 296°
2026-05-07 04:16 20.87572 66.53171 33878 ft 476 kts 296°
2026-05-07 04:17 20.90462 66.46857 33880 ft 476 kts 296°
2026-05-07 04:17 20.93379 66.40478 33876 ft 476 kts 296°
2026-05-07 04:18 20.96271 66.34144 33880 ft 476 kts 296°
2026-05-07 04:18 20.99176 66.27773 33880 ft 476 kts 296°
2026-05-07 04:19 21.01597 66.22459 33878 ft 476 kts 296°
2026-05-07 04:19 21.04504 66.16071 33880 ft 476 kts 296°
2026-05-07 04:20 21.07386 66.09730 33879 ft 476 kts 296°
2026-05-07 04:20 21.10765 66.02285 33877 ft 477 kts 296°
2026-05-07 04:21 21.14696 65.93783 33879 ft 477 kts 297°
2026-05-07 04:21 21.17707 65.87440 33878 ft 477 kts 297°
2026-05-07 04:22 21.20692 65.81134 33881 ft 477 kts 297°
2026-05-07 04:22 21.23685 65.74780 33880 ft 476 kts 297°
2026-05-07 04:23 21.26651 65.68461 33880 ft 476 kts 297°
2026-05-07 04:23 21.29634 65.62101 33878 ft 476 kts 297°
2026-05-07 04:24 21.32614 65.55739 33879 ft 476 kts 296°
2026-05-07 04:24 21.35574 65.49411 33879 ft 476 kts 296°
2026-05-07 04:25 21.38547 65.43050 33881 ft 476 kts 296°
2026-05-07 04:25 21.41514 65.36693 33876 ft 476 kts 296°
2026-05-07 04:26 21.44464 65.30367 33881 ft 476 kts 296°
2026-05-07 04:26 21.47425 65.24007 33884 ft 476 kts 296°
2026-05-07 04:27 21.50387 65.17639 33936 ft 479 kts 296°
2026-05-07 04:27 21.51864 65.14460 34219 ft 480 kts 296°
2026-05-07 04:27 21.53356 65.11247 34644 ft 477 kts 296°
2026-05-07 04:28 21.54832 65.08067 35084 ft 474 kts 296°
2026-05-07 04:28 21.56296 65.04910 35491 ft 471 kts 296°
2026-05-07 04:28 21.57757 65.01758 35847 ft 470 kts 296°
2026-05-07 04:28 21.59207 64.98627 35867 ft 474 kts 296°
2026-05-07 04:29 21.62146 64.92277 35873 ft 471 kts 296°
2026-05-07 04:29 21.65032 64.86034 35874 ft 467 kts 296°
2026-05-07 04:30 21.67917 64.79784 35878 ft 466 kts 296°
2026-05-07 04:30 21.70802 64.73529 35878 ft 466 kts 296°
2026-05-07 04:31 21.73684 64.67271 35879 ft 467 kts 296°
2026-05-07 04:31 21.76560 64.61018 35879 ft 468 kts 296°
2026-05-07 04:32 21.79452 64.54724 35878 ft 469 kts 296°
2026-05-07 04:32 21.82332 64.48447 35876 ft 470 kts 296°
2026-05-07 04:33 21.85212 64.42163 35876 ft 470 kts 296°
2026-05-07 04:33 21.88110 64.35833 35874 ft 471 kts 296°
2026-05-07 04:34 21.91007 64.29495 35875 ft 470 kts 296°
2026-05-07 04:34 21.93880 64.23203 35874 ft 470 kts 296°
2026-05-07 04:35 21.96765 64.16878 35876 ft 470 kts 296°
2026-05-07 04:35 21.99646 64.10552 35874 ft 469 kts 296°
2026-05-07 04:36 22.02501 64.04277 35871 ft 469 kts 296°
2026-05-07 04:36 22.05371 63.97959 35872 ft 468 kts 295°
2026-05-07 04:37 22.08243 63.91630 35872 ft 468 kts 295°
2026-05-07 04:37 22.11089 63.85351 35869 ft 468 kts 295°
2026-05-07 04:38 22.13949 63.79032 35870 ft 468 kts 295°
2026-05-07 04:38 22.16770 63.72793 35868 ft 468 kts 295°
2026-05-07 04:39 22.19622 63.66475 35869 ft 468 kts 295°
2026-05-07 04:39 22.22471 63.60157 35869 ft 469 kts 295°
2026-05-07 04:40 22.25323 63.53824 35867 ft 469 kts 295°
2026-05-07 04:40 22.28078 63.47700 35867 ft 469 kts 295°
2026-05-07 04:41 22.30932 63.41347 35867 ft 469 kts 295°
2026-05-07 04:41 22.33765 63.35033 35865 ft 469 kts 295°
2026-05-07 04:42 22.36608 63.28688 35866 ft 469 kts 295°
2026-05-07 04:42 22.39438 63.22363 35864 ft 468 kts 295°
2026-05-07 04:43 22.42278 63.16009 35866 ft 468 kts 295°
2026-05-07 04:43 22.45074 63.09684 35866 ft 468 kts 294°
2026-05-07 04:44 22.47635 63.03203 35864 ft 468 kts 292°
2026-05-07 04:44 22.50109 62.96698 35862 ft 468 kts 292°
2026-05-07 04:45 22.52596 62.90229 35865 ft 468 kts 292°
2026-05-07 04:45 22.55120 62.83726 35859 ft 468 kts 292°
2026-05-07 04:46 22.57648 62.77232 35861 ft 468 kts 292°
2026-05-07 04:46 22.60157 62.70778 35859 ft 468 kts 292°
2026-05-07 04:47 22.62684 62.64267 35860 ft 467 kts 292°
2026-05-07 04:47 22.65203 62.57764 35861 ft 467 kts 292°
2026-05-07 04:48 22.67701 62.51305 35858 ft 467 kts 292°
2026-05-07 04:48 22.70216 62.44795 35856 ft 467 kts 292°
2026-05-07 04:49 22.72713 62.38319 35855 ft 467 kts 292°
2026-05-07 04:49 22.75202 62.31859 35853 ft 467 kts 292°
2026-05-07 04:50 22.77704 62.25353 35852 ft 466 kts 292°
2026-05-07 04:50 22.80187 62.18889 35855 ft 466 kts 292°
2026-05-07 04:51 22.82678 62.12393 35849 ft 466 kts 292°
2026-05-07 04:51 22.85171 62.05884 35849 ft 466 kts 292°
2026-05-07 04:52 22.87640 61.99428 35849 ft 466 kts 292°
2026-05-07 04:52 22.90139 61.92884 35862 ft 472 kts 292°